Time,TemperatureF,DewpointF,PressureIn,WindDirection,WindDirectionDegrees,WindSpeedMPH,WindSpeedGustMPH,Humidity,HourlyPrecipIn,Conditions,Clouds,dailyrainin,SoftwareType,DateUTC
2013-08-03 00:00:00,56.8,50.4,29.96,NW,314,0.0,0.0,79,0.00,,,-99.99,Weather View 32 v60,2013-08-03 07:00:00,
2013-08-03 00:07:00,56.8,50.4,29.96,NW,314,0.0,0.0,79,0.00,,,-99.99,Weather View 32 v60,2013-08-03 07:07:00,
2013-08-03 00:19:00,56.7,50.5,29.96,NNW,332,0.0,0.0,80,0.00,,,-99.99,Weather View 32 v60,2013-08-03 07:19:00,
2013-08-03 00:29:00,56.5,50.4,29.96,NNW,332,0.0,0.0,80,0.00,,,-99.99,Weather View 32 v60,2013-08-03 07:29:00,
2013-08-03 00:39:00,56.3,50.2,29.96,NNW,332,0.0,0.0,80,0.00,,,-99.99,Weather View 32 v60,2013-08-03 07:39:00,
2013-08-03 00:49:00,56.3,50.5,29.96,NNW,332,0.0,0.0,81,0.00,,,-99.99,Weather View 32 v60,2013-08-03 07:49:00,
2013-08-03 01:00:00,55.9,50.2,29.96,NNW,332,0.0,0.0,81,0.00,,,-99.99,Weather View 32 v60,2013-08-03 08:00:00,
2013-08-03 01:07:00,55.9,50.2,29.96,NNW,332,0.0,0.0,81,0.00,,,-99.99,Weather View 32 v60,2013-08-03 08:07:00,
2013-08-03 01:20:00,55.4,49.7,29.96,NNW,332,0.0,0.0,81,0.00,,,-99.99,Weather View 32 v60,2013-08-03 08:20:00,
2013-08-03 01:29:00,55.0,49.6,29.96,NNW,332,0.0,0.0,82,0.00,,,-99.99,Weather View 32 v60,2013-08-03 08:29:00,
2013-08-03 01:39:00,54.9,49.5,29.93,NNW,332,0.0,0.0,82,0.00,,,-99.99,Weather View 32 v60,2013-08-03 08:39:00,
2013-08-03 01:49:00,54.7,49.6,29.93,NNW,332,0.0,0.0,83,0.00,,,-99.99,Weather View 32 v60,2013-08-03 08:49:00,
2013-08-03 02:00:00,54.7,49.9,29.93,NNW,332,0.0,0.0,84,0.00,,,-99.99,Weather View 32 v60,2013-08-03 09:00:00,
2013-08-03 02:08:00,54.7,49.9,29.93,NNW,332,0.0,0.0,84,0.00,,,-99.99,Weather View 32 v60,2013-08-03 09:08:00,
2013-08-03 02:19:00,54.1,49.4,29.93,NNW,332,0.0,0.0,84,0.00,,,-99.99,Weather View 32 v60,2013-08-03 09:19:00,
2013-08-03 02:30:00,54.0,49.2,29.93,NNW,332,0.0,0.0,84,0.00,,,-99.99,Weather View 32 v60,2013-08-03 09:30:00,
2013-08-03 02:39:00,53.6,49.2,29.96,NNW,332,0.0,0.0,85,0.00,,,-99.99,Weather View 32 v60,2013-08-03 09:39:00,
2013-08-03 02:49:00,53.4,49.0,29.96,NNW,332,0.0,0.0,85,0.00,,,-99.99,Weather View 32 v60,2013-08-03 09:49:00,
2013-08-03 03:00:00,53.4,49.0,29.96,NNW,332,0.0,0.0,85,0.00,,,-99.99,Weather View 32 v60,2013-08-03 10:00:00,
2013-08-03 03:08:00,53.4,49.0,29.96,NNW,332,0.0,0.0,85,0.00,,,-99.99,Weather View 32 v60,2013-08-03 10:08:00,
2013-08-03 03:20:00,53.6,49.8,29.96,NNW,332,0.0,0.0,87,0.00,,,-99.99,Weather View 32 v60,2013-08-03 10:20:00,
2013-08-03 03:29:00,53.4,49.6,29.93,NNW,332,0.0,0.0,87,0.00,,,-99.99,Weather View 32 v60,2013-08-03 10:29:00,
2013-08-03 03:40:00,53.2,49.5,29.93,NNW,332,0.0,0.0,87,0.00,,,-99.99,Weather View 32 v60,2013-08-03 10:40:00,
2013-08-03 03:50:00,53.1,49.6,29.93,NNW,332,0.0,0.0,88,0.00,,,-99.99,Weather View 32 v60,2013-08-03 10:50:00,
2013-08-03 04:00:00,53.1,49.6,29.93,NNW,332,0.0,0.0,88,0.00,,,-99.99,Weather View 32 v60,2013-08-03 11:00:00,
2013-08-03 04:09:00,53.1,49.6,29.93,NNW,332,0.0,0.0,88,0.00,,,-99.99,Weather View 32 v60,2013-08-03 11:09:00,
2013-08-03 04:20:00,52.5,49.4,29.96,NNW,332,0.0,0.0,89,0.00,,,-99.99,Weather View 32 v60,2013-08-03 11:20:00,
2013-08-03 04:30:00,52.2,49.0,29.96,NNW,332,0.0,0.0,89,0.00,,,-99.99,Weather View 32 v60,2013-08-03 11:30:00,
2013-08-03 04:40:00,52.2,49.3,29.93,NNW,332,0.0,0.0,90,0.00,,,-99.99,Weather View 32 v60,2013-08-03 11:40:00,
2013-08-03 04:50:00,52.0,49.1,29.93,NNW,332,0.0,0.0,90,0.00,,,-99.99,Weather View 32 v60,2013-08-03 11:50:00,
2013-08-03 04:59:00,52.0,49.4,29.93,NNW,332,0.0,0.0,91,0.00,,,-99.99,Weather View 32 v60,2013-08-03 11:59:00,
2013-08-03 05:09:00,52.0,49.4,29.93,NNW,332,0.0,0.0,91,0.00,,,-99.99,Weather View 32 v60,2013-08-03 12:09:00,
2013-08-03 05:20:00,52.0,49.4,29.96,NNW,332,0.0,0.0,91,0.00,,,-99.99,Weather View 32 v60,2013-08-03 12:20:00,
2013-08-03 05:30:00,51.8,49.3,29.96,NNW,332,0.0,0.0,91,0.00,,,-99.99,Weather View 32 v60,2013-08-03 12:30:00,
2013-08-03 05:40:00,51.8,49.5,29.96,NNW,332,0.0,0.0,92,0.00,,,-99.99,Weather View 32 v60,2013-08-03 12:40:00,
2013-08-03 05:50:00,51.6,49.4,29.96,NNW,332,0.0,0.0,92,0.00,,,-99.99,Weather View 32 v60,2013-08-03 12:50:00,
2013-08-03 06:00:00,51.4,49.2,29.96,NNW,332,0.0,0.0,92,0.00,,,-99.99,Weather View 32 v60,2013-08-03 13:00:00,
2013-08-03 06:10:00,51.4,49.2,29.96,NNW,332,0.0,0.0,92,0.00,,,-99.99,Weather View 32 v60,2013-08-03 13:10:00,
2013-08-03 06:20:00,51.4,49.2,29.96,NNW,332,0.0,0.0,92,0.00,,,-99.99,Weather View 32 v60,2013-08-03 13:20:00,
2013-08-03 06:30:00,51.6,49.7,29.96,NNW,332,0.0,0.0,93,0.00,,,-99.99,Weather View 32 v60,2013-08-03 13:30:00,
2013-08-03 06:40:00,52.3,50.4,29.96,NNW,332,0.0,0.0,93,0.00,,,-99.99,Weather View 32 v60,2013-08-03 13:40:00,
2013-08-03 06:50:00,52.9,50.9,29.96,NNW,332,0.0,0.0,93,0.00,,,-99.99,Weather View 32 v60,2013-08-03 13:50:00,
2013-08-03 07:00:00,53.4,51.4,29.96,NNW,332,0.0,0.0,93,0.00,,,-99.99,Weather View 32 v60,2013-08-03 14:00:00,
2013-08-03 07:10:00,54.3,52.3,29.96,NNW,332,0.0,0.0,93,0.00,,,-99.99,Weather View 32 v60,2013-08-03 14:10:00,
2013-08-03 07:20:00,54.9,52.6,29.96,NNW,332,0.0,0.0,92,0.00,,,-99.99,Weather View 32 v60,2013-08-03 14:20:00,
2013-08-03 07:30:00,55.8,53.5,29.99,NNW,331,0.0,0.0,92,0.00,,,-99.99,Weather View 32 v60,2013-08-03 14:30:00,
2013-08-03 07:39:00,56.7,54.1,29.99,NNW,332,0.0,0.0,91,0.00,,,-99.99,Weather View 32 v60,2013-08-03 14:39:00,
2013-08-03 07:50:00,57.4,54.8,29.99,ESE,118,0.0,0.0,91,0.00,,,-99.99,Weather View 32 v60,2013-08-03 14:50:00,
2013-08-03 08:00:00,57.9,54.7,29.99,ESE,118,0.0,0.0,89,0.00,,,-99.99,Weather View 32 v60,2013-08-03 15:00:00,
2013-08-03 08:09:00,58.6,54.8,29.99,ENE,78,0.0,0.0,87,0.00,,,-99.99,Weather View 32 v60,2013-08-03 15:09:00,
2013-08-03 08:20:00,59.4,54.2,29.99,SSE,148,0.0,0.0,83,0.00,,,-99.99,Weather View 32 v60,2013-08-03 15:20:00,
2013-08-03 08:30:00,60.3,53.7,29.99,SE,133,0.0,0.0,79,0.00,,,-99.99,Weather View 32 v60,2013-08-03 15:30:00,
2013-08-03 08:40:00,61.7,53.7,29.99,ESE,121,0.0,0.0,75,0.00,,,-99.99,Weather View 32 v60,2013-08-03 15:40:00,
2013-08-03 08:50:00,62.8,52.0,29.99,NE,37,0.0,0.0,68,0.00,,,-99.99,Weather View 32 v60,2013-08-03 15:50:00,
2013-08-03 09:00:00,63.1,52.0,29.99,North,9,0.0,0.0,67,0.00,,,-99.99,Weather View 32 v60,2013-08-03 16:00:00,
2013-08-03 09:10:00,63.5,52.3,29.99,NNE,32,0.0,0.0,67,0.00,,,-99.99,Weather View 32 v60,2013-08-03 16:10:00,
2013-08-03 09:20:00,64.0,52.0,29.99,WNW,298,0.0,0.0,65,0.00,,,-99.99,Weather View 32 v60,2013-08-03 16:20:00,
2013-08-03 09:30:00,65.1,52.6,29.99,ESE,103,0.0,0.0,64,0.00,,,-99.99,Weather View 32 v60,2013-08-03 16:30:00,
2013-08-03 09:39:00,65.5,52.9,29.99,NE,50,0.0,0.0,64,0.00,,,-99.99,Weather View 32 v60,2013-08-03 16:39:00,
2013-08-03 09:49:00,65.7,52.2,29.99,East,86,0.0,0.0,62,0.00,,,-99.99,Weather View 32 v60,2013-08-03 16:49:00,
2013-08-03 10:00:00,66.6,52.2,29.99,ENE,58,3.0,3.0,60,0.00,,,-99.99,Weather View 32 v60,2013-08-03 17:00:00,
2013-08-03 10:10:00,67.6,51.8,29.99,North,351,0.0,3.0,57,0.00,,,-99.99,Weather View 32 v60,2013-08-03 17:10:00,
2013-08-03 10:20:00,68.0,52.2,29.99,NW,311,0.0,4.0,57,0.00,,,-99.99,Weather View 32 v60,2013-08-03 17:20:00,
2013-08-03 10:29:00,69.1,51.7,29.99,North,351,0.0,4.0,54,0.00,,,-99.99,Weather View 32 v60,2013-08-03 17:29:00,
2013-08-03 10:40:00,69.4,51.0,29.99,NNW,335,0.0,4.0,52,0.00,,,-99.99,Weather View 32 v60,2013-08-03 17:40:00,
2013-08-03 10:50:00,70.2,51.1,29.99,WSW,254,0.0,4.0,51,0.00,,,-99.99,Weather View 32 v60,2013-08-03 17:50:00,
2013-08-03 10:59:00,71.2,50.5,29.99,NW,326,0.0,4.0,48,0.00,,,-99.99,Weather View 32 v60,2013-08-03 17:59:00,
2013-08-03 11:10:00,71.6,50.2,29.96,ENE,66,0.0,4.0,47,0.00,,,-99.99,Weather View 32 v60,2013-08-03 18:10:00,
2013-08-03 11:19:00,73.2,49.3,29.96,NE,45,0.0,4.0,43,0.00,,,-99.99,Weather View 32 v60,2013-08-03 18:19:00,
2013-08-03 11:30:00,73.0,49.2,29.96,NNW,347,0.0,4.0,43,0.00,,,-99.99,Weather View 32 v60,2013-08-03 18:30:00,
2013-08-03 11:40:00,74.7,50.0,29.96,NE,34,0.0,4.0,42,0.00,,,-99.99,Weather View 32 v60,2013-08-03 18:40:00,
2013-08-03 11:50:00,75.4,49.3,29.96,NNW,346,0.0,4.0,40,0.00,,,-99.99,Weather View 32 v60,2013-08-03 18:50:00,
2013-08-03 12:00:00,75.7,48.3,29.96,NE,49,0.0,4.0,38,0.00,,,-99.99,Weather View 32 v60,2013-08-03 19:00:00,
2013-08-03 12:10:00,76.6,49.1,29.96,NNW,343,0.0,4.0,38,0.00,,,-99.99,Weather View 32 v60,2013-08-03 19:10:00,
2013-08-03 12:20:00,77.7,49.3,29.96,North,5,0.0,4.0,37,0.00,,,-99.99,Weather View 32 v60,2013-08-03 19:20:00,
2013-08-03 12:30:00,79.3,50.0,29.96,West,278,0.0,4.0,36,0.00,,,-99.99,Weather View 32 v60,2013-08-03 19:30:00,
2013-08-03 12:40:00,79.7,48.8,29.96,NNW,329,0.0,5.0,34,0.00,,,-99.99,Weather View 32 v60,2013-08-03 19:40:00,
2013-08-03 12:50:00,81.0,49.1,29.96,NNE,18,3.0,5.0,33,0.00,,,-99.99,Weather View 32 v60,2013-08-03 19:50:00,
2013-08-03 13:00:00,81.3,48.5,29.96,SW,226,0.0,7.0,32,0.00,,,-99.99,Weather View 32 v60,2013-08-03 20:00:00,
2013-08-03 13:10:00,82.4,48.6,29.93,NNE,20,0.0,8.0,31,0.00,,,-99.99,Weather View 32 v60,2013-08-03 20:10:00,
2013-08-03 13:20:00,82.6,48.8,29.93,NNW,336,3.0,8.0,31,0.00,,,-99.99,Weather View 32 v60,2013-08-03 20:20:00,
2013-08-03 13:30:00,82.4,47.8,29.93,North,351,3.0,8.0,30,0.00,,,-99.99,Weather View 32 v60,2013-08-03 20:30:00,
2013-08-03 13:39:00,83.3,48.5,29.93,NNW,333,0.0,8.0,30,0.00,,,-99.99,Weather View 32 v60,2013-08-03 20:39:00,
2013-08-03 13:50:00,84.4,48.5,29.93,NW,320,5.0,8.0,29,0.00,,,-99.99,Weather View 32 v60,2013-08-03 20:50:00,
2013-08-03 14:00:00,85.1,49.2,29.93,NE,48,0.0,11.0,29,0.00,,,-99.99,Weather View 32 v60,2013-08-03 21:00:00,
2013-08-03 14:10:00,86.4,49.3,29.93,NNW,341,0.0,11.0,28,0.00,,,-99.99,Weather View 32 v60,2013-08-03 21:10:00,
2013-08-03 14:19:00,87.3,50.1,29.93,SSW,193,0.0,11.0,28,0.00,,,-99.99,Weather View 32 v60,2013-08-03 21:19:00,
2013-08-03 14:30:00,87.1,48.9,29.93,NNE,24,5.0,11.0,27,0.00,,,-99.99,Weather View 32 v60,2013-08-03 21:30:00,
2013-08-03 14:39:00,87.1,49.9,29.93,ESE,106,0.0,11.0,28,0.00,,,-99.99,Weather View 32 v60,2013-08-03 21:39:00,
2013-08-03 14:50:00,86.4,47.3,29.93,NNE,20,0.0,11.0,26,0.00,,,-99.99,Weather View 32 v60,2013-08-03 21:50:00,
2013-08-03 15:00:00,87.4,49.2,29.93,NNW,333,0.0,8.0,27,0.00,,,-99.99,Weather View 32 v60,2013-08-03 22:00:00,
2013-08-03 15:10:00,89.1,48.5,29.93,WSW,254,0.0,9.0,25,0.00,,,-99.99,Weather View 32 v60,2013-08-03 22:10:00,
2013-08-03 15:15:00,89.1,48.5,29.93,WSW,254,0.0,9.0,25,0.00,,,-99.99,Weather View 32 v60,2013-08-03 22:15:00,
2013-08-03 15:30:00,89.1,45.1,29.93,SW,223,0.0,9.0,22,0.00,,,-99.99,Weather View 32 v60,2013-08-03 22:30:00,
2013-08-03 15:40:00,89.6,47.9,29.90,South,171,0.0,9.0,24,0.00,,,-99.99,Weather View 32 v60,2013-08-03 22:40:00,
2013-08-03 15:50:00,89.4,48.8,29.90,South,184,0.0,9.0,25,0.00,,,-99.99,Weather View 32 v60,2013-08-03 22:50:00,
2013-08-03 16:00:00,89.1,49.6,29.90,West,264,0.0,11.0,26,0.00,,,-99.99,Weather View 32 v60,2013-08-03 23:00:00,
2013-08-03 16:10:00,87.8,48.5,29.90,WNW,289,4.0,11.0,26,0.00,,,-99.99,Weather View 32 v60,2013-08-03 23:10:00,
2013-08-03 16:15:00,87.8,48.5,29.90,WNW,289,4.0,11.0,26,0.00,,,-99.99,Weather View 32 v60,2013-08-03 23:15:00,
2013-08-03 16:30:00,85.3,48.4,29.90,WNW,283,0.0,11.0,28,0.00,,,-99.99,Weather View 32 v60,2013-08-03 23:30:00,
2013-08-03 16:40:00,85.3,49.3,29.90,WSW,238,0.0,11.0,29,0.00,,,-99.99,Weather View 32 v60,2013-08-03 23:40:00,
2013-08-03 16:50:00,84.7,48.9,29.90,NW,311,0.0,11.0,29,0.00,,,-99.99,Weather View 32 v60,2013-08-03 23:50:00,
2013-08-03 17:00:00,85.1,49.2,29.90,WNW,282,0.0,9.0,29,0.00,,,-99.99,Weather View 32 v60,2013-08-04 00:00:00,
2013-08-03 17:10:00,84.9,49.0,29.90,WNW,286,0.0,9.0,29,0.00,,,-99.99,Weather View 32 v60,2013-08-04 00:10:00,
2013-08-03 17:16:00,84.9,49.0,29.90,WNW,286,0.0,9.0,29,0.00,,,-99.99,Weather View 32 v60,2013-08-04 00:16:00,
2013-08-03 17:30:00,83.5,47.8,29.90,WNW,299,3.0,9.0,29,0.00,,,-99.99,Weather View 32 v60,2013-08-04 00:30:00,
2013-08-03 17:39:00,83.3,48.5,29.90,NNW,347,3.0,8.0,30,0.00,,,-99.99,Weather View 32 v60,2013-08-04 00:39:00,
2013-08-03 17:50:00,82.9,48.2,29.90,NNW,328,3.0,8.0,30,0.00,,,-99.99,Weather View 32 v60,2013-08-04 00:50:00,
2013-08-03 17:59:00,82.4,47.8,29.90,SSE,151,0.0,10.0,30,0.00,,,-99.99,Weather View 32 v60,2013-08-04 00:59:00,
2013-08-03 18:09:00,82.2,48.5,29.90,WNW,301,5.0,10.0,31,0.00,,,-99.99,Weather View 32 v60,2013-08-04 01:09:00,
2013-08-03 18:16:00,82.2,48.5,29.90,WNW,301,5.0,10.0,31,0.00,,,-99.99,Weather View 32 v60,2013-08-04 01:16:00,
2013-08-03 18:30:00,80.2,47.6,29.90,West,280,3.0,10.0,32,0.00,,,-99.99,Weather View 32 v60,2013-08-04 01:30:00,
2013-08-03 18:40:00,79.3,47.6,29.90,NNW,332,7.0,10.0,33,0.00,,,-99.99,Weather View 32 v60,2013-08-04 01:40:00,
2013-08-03 18:50:00,78.1,47.3,29.90,North,0,4.0,10.0,34,0.00,,,-99.99,Weather View 32 v60,2013-08-04 01:50:00,
2013-08-03 19:00:00,77.4,48.2,29.90,West,263,0.0,10.0,36,0.00,,,-99.99,Weather View 32 v60,2013-08-04 02:00:00,
2013-08-03 19:10:00,76.6,48.3,29.90,South,183,0.0,10.0,37,0.00,,,-99.99,Weather View 32 v60,2013-08-04 02:10:00,
2013-08-03 19:17:00,76.6,48.3,29.90,South,183,0.0,10.0,37,0.00,,,-99.99,Weather View 32 v60,2013-08-04 02:17:00,
2013-08-03 19:30:00,74.8,48.8,29.90,NW,309,0.0,8.0,40,0.00,,,-99.99,Weather View 32 v60,2013-08-04 02:30:00,
2013-08-03 19:39:00,73.9,49.3,29.90,SSW,199,0.0,8.0,42,0.00,,,-99.99,Weather View 32 v60,2013-08-04 02:39:00,
2013-08-03 19:50:00,72.9,49.0,29.90,West,270,0.0,8.0,43,0.00,,,-99.99,Weather View 32 v60,2013-08-04 02:50:00,
2013-08-03 20:00:00,71.8,49.2,29.90,SSE,165,0.0,7.0,45,0.00,,,-99.99,Weather View 32 v60,2013-08-04 03:00:00,
2013-08-03 20:10:00,70.2,49.5,29.90,West,260,0.0,7.0,48,0.00,,,-99.99,Weather View 32 v60,2013-08-04 03:10:00,
2013-08-03 20:17:00,70.2,49.5,29.90,West,260,0.0,7.0,48,0.00,,,-99.99,Weather View 32 v60,2013-08-04 03:17:00,
2013-08-03 20:30:00,67.8,50.5,29.93,NNE,22,0.0,10.0,54,0.00,,,-99.99,Weather View 32 v60,2013-08-04 03:30:00,
2013-08-03 20:40:00,67.1,50.8,29.93,NW,306,0.0,10.0,56,0.00,,,-99.99,Weather View 32 v60,2013-08-04 03:40:00,
2013-08-03 20:50:00,66.6,50.8,29.93,West,260,0.0,10.0,57,0.00,,,-99.99,Weather View 32 v60,2013-08-04 03:50:00,
2013-08-03 20:59:00,66.0,51.2,29.93,South,183,0.0,10.0,59,0.00,,,-99.99,Weather View 32 v60,2013-08-04 03:59:00,
2013-08-03 21:10:00,65.5,51.2,29.93,West,263,3.0,10.0,60,0.00,,,-99.99,Weather View 32 v60,2013-08-04 04:10:00,
2013-08-03 21:17:00,65.5,51.2,29.93,West,263,3.0,10.0,60,0.00,,,-99.99,Weather View 32 v60,2013-08-04 04:17:00,
2013-08-03 21:30:00,64.4,51.1,29.93,West,273,0.0,9.0,62,0.00,,,-99.99,Weather View 32 v60,2013-08-04 04:30:00,
2013-08-03 21:39:00,64.0,51.2,29.93,SW,217,0.0,8.0,63,0.00,,,-99.99,Weather View 32 v60,2013-08-04 04:39:00,
2013-08-03 21:50:00,63.7,50.8,29.93,NNW,346,0.0,7.0,63,0.00,,,-99.99,Weather View 32 v60,2013-08-04 04:50:00,
2013-08-03 22:00:00,63.3,50.5,29.96,North,351,0.0,7.0,63,0.00,,,-99.99,Weather View 32 v60,2013-08-04 05:00:00,
2013-08-03 22:10:00,63.0,50.6,29.96,NW,323,0.0,7.0,64,0.00,,,-99.99,Weather View 32 v60,2013-08-04 05:10:00,
2013-08-03 22:18:00,63.0,50.6,29.96,NW,323,0.0,7.0,64,0.00,,,-99.99,Weather View 32 v60,2013-08-04 05:18:00,
2013-08-03 22:29:00,62.1,50.5,29.96,NNW,345,0.0,0.0,66,0.00,,,-99.99,Weather View 32 v60,2013-08-04 05:29:00,
2013-08-03 22:40:00,61.7,50.6,29.96,NW,323,0.0,0.0,67,0.00,,,-99.99,Weather View 32 v60,2013-08-04 05:40:00,
2013-08-03 22:50:00,61.3,50.7,29.96,NNW,341,0.0,0.0,68,0.00,,,-99.99,Weather View 32 v60,2013-08-04 05:50:00,
2013-08-03 23:00:00,60.8,50.9,29.96,North,4,0.0,0.0,70,0.00,,,-99.99,Weather View 32 v60,2013-08-04 06:00:00,
2013-08-03 23:10:00,60.4,50.6,29.96,North,351,0.0,0.0,70,0.00,,,-99.99,Weather View 32 v60,2013-08-04 06:10:00,
2013-08-03 23:19:00,60.4,50.6,29.96,North,351,0.0,0.0,70,0.00,,,-99.99,Weather View 32 v60,2013-08-04 06:19:00,
2013-08-03 23:30:00,59.5,50.5,29.96,North,5,0.0,0.0,72,0.00,,,-99.99,Weather View 32 v60,2013-08-04 06:30:00,
2013-08-03 23:40:00,58.8,50.2,29.96,ENE,60,0.0,0.0,73,0.00,,,-99.99,Weather View 32 v60,2013-08-04 06:40:00,
2013-08-03 23:50:00,58.3,50.4,29.96,NNW,340,0.0,0.0,75,0.00,,,-99.99,Weather View 32 v60,2013-08-04 06:50:00,